Content
SEND FEEDBACK

Daily
Averages
Monthly
Summary
United States of America

BIG WATER, UTAH


Home > North America > United States > Utah
Elevation: 4166 feet     Latitude: 37 05N     Longitude: 111 40W

WEATHER
 
SELECT A DAY
Number of Records: 194,702;   Date Range: 1/1/95 - 7/26/14
 
SHARE

PRINT THIS DATA

[ ← Previous Day ]
WEATHER ALMANAC - AUGUST 18, 2013
[ Next Day → ]
[ °C ]   °F
Weather ElementAverageHighLow
Temperature81 °F91.9 °F (2:53 pm)68 °F (2:53 am)
Dewpoint50.7 °F57 °F (2:53 am)43 °F (4:53 pm)
Humidity37.8 %68 % (2:53 am)18 % (4:53 pm)
Barometer29.93 in30.03 in (7:53 am)29.83 in (5:53 pm)
Wind Speed2.5 mph5.8 mph (2:53 am)
Weather ElementAverage
Visibility10 mi
Wind DirectionESE (121.7 °)

Weather ElementTotal
Precipitation---
Cooling Degree Days15 (Base 65)
Growing Degree Days30 (Base 50)
Averaged from 23 records on August 18, 2013
WEATHER CONDITIONS BREAKOUT
WIND DIRECTION BREAKOUT
WEATHER BY HOUR - AUGUST 18, 2013
[ °C ]   °F
Local TimeTemperatureDewpointHumidityBarometerVisibilityWind DirectionWind SpeedGust SpeedPrecipitationEventsConditions
1:53 AM71.1 °F54.0 °F55 %29.95 in10.0 miSW (220°)3.5 mphClear
2:53 AM68.0 °F57.0 °F68 %29.96 in10.0 miSE (130°)5.8 mphClear
3:53 AM70.0 °F55.0 °F59 %29.96 in10.0 miSouth (180°)3.5 mphClear
4:53 AM70.0 °F55.0 °F59 %29.98 in10.0 miSouth (180°)3.5 mphPartly Cloudy
5:53 AM71.1 °F54.0 °F55 %29.99 in10.0 miWSW (240°)4.6 mphPartly Cloudy
6:53 AM71.1 °F55.0 °F57 %30.02 in10.0 miCalmPartly Cloudy
7:53 AM72.0 °F55.0 °F55 %30.03 in10.0 miCalmMostly Cloudy
8:53 AM75.0 °F54.0 °F48 %30.02 in10.0 miCalmClear
9:53 AM78.1 °F55.0 °F45 %30.02 in10.0 miCalmClear
10:53 AM81.0 °F54.0 °F39 %30.01 in10.0 miENE (60°)3.5 mphClear
11:53 AM86.0 °F54.0 °F33 %29.97 in10.0 miCalmClear
12:53 PM86.0 °F51.1 °F30 %29.95 in10.0 miVariable3.5 mphClear
1:53 PM91.0 °F48.9 °F23 %29.91 in10.0 miCalmClear
2:53 PM91.9 °F48.0 °F22 %29.87 in10.0 miCalmClear
3:53 PM91.0 °F46.0 °F21 %29.86 in10.0 miNW (320°)3.5 mphClear
4:53 PM91.9 °F43.0 °F18 %29.84 in10.0 miCalmClear
5:53 PM90.0 °F44.1 °F20 %29.83 in10.0 miWest (260°)3.5 mphClear
6:53 PM88.0 °F46.9 °F24 %29.84 in10.0 miCalmClear
7:53 PM87.1 °F46.9 °F25 %29.85 in10.0 miSW (230°)3.5 mphClear
8:53 PM84.9 °F48.9 °F29 %29.87 in10.0 miSW (220°)4.6 mphClear
9:53 PM84.0 °F48.9 °F29 %29.89 in10.0 miWSW (240°)3.5 mphClear
10:53 PM82.0 °F46.9 °F29 %29.90 in10.0 miWest (280°)4.6 mphClear
11:53 PM82.9 °F45.0 °F26 %29.90 in10.0 miWSW (240°)5.8 mphClear
Hourly data recorded from KPGA, located miles away from Big Water, Utah







STORIES FROM OUR PARTNERS